When you browse on this site, cookies collect data to enhance your experience and personalize the content and advertising you see.
Visit our Privacy Policy to learn more. By continuing to use the site, you agree to this use of cookies and data.
  • In Hungary
  • List of Countries
  • For 7 days
  • Water Temperature
  • Satellite Maps
  • Weather Map
  • News
  • Weather Widgets
  • user-avatar
    Login

    Hourly Weather Cherepyagino

    Today, 25 May, Saturday

    Time Temperature Precipitation Wind Pressure Humidity
    00:00 +15°C° 0 mm 1 mps 750 mmHg 93%
    01:00 +15°C° 0 mm 1 mps 750 mmHg 93%
    02:00 +14°C° 0 mm 2 mps 749 mmHg 93%
    03:00 +13°C° 0 mm 1 mps 749 mmHg 93%
    04:00 +13°C° 0 mm 1 mps 749 mmHg 93%
    05:00 +12°C° 0 mm 1 mps 749 mmHg 93%
    06:00 +14°C° 0 mm 1 mps 749 mmHg 86%
    07:00 +15°C° 0 mm 1 mps 748 mmHg 79%
    08:00 +17°C° 0 mm 2 mps 748 mmHg 72%
    09:00 +18°C° 0 mm 2 mps 748 mmHg 66%
    10:00 +19°C° 0 mm 3 mps 748 mmHg 60%
    11:00 +20°C° 0 mm 3 mps 748 mmHg 54%
    12:00 +20°C° 0.2 mm 4 mps 747 mmHg 57%
    13:00 +20°C° 0.2 mm 4 mps 747 mmHg 60%
    14:00 +20°C° 0.2 mm 5 mps 747 mmHg 63%
    15:00 +19°C° 0.2 mm 4 mps 747 mmHg 64%
    16:00 +19°C° 0.2 mm 4 mps 746 mmHg 65%
    17:00 +19°C° 0.2 mm 4 mps 746 mmHg 67%
    18:00 +17°C° 0.1 mm 3 mps 746 mmHg 71%
    19:00 +16°C° 0.1 mm 3 mps 746 mmHg 75%
    20:00 +13°C° 0.1 mm 3 mps 746 mmHg 79%
    21:00 +12°C° 0 mm 3 mps 746 mmHg 81%
    22:00 +11°C° 0 mm 3 mps 747 mmHg 83%
    23:00 +9°C° 0 mm 3 mps 747 mmHg 85%

    Tomorrow, 26 May, Sunday

    Time Temperature Precipitation Wind Pressure Humidity
    00:00 +8°C° 0 mm 3 mps 747 mmHg 88%
    01:00 +8°C° 0 mm 3 mps 747 mmHg 91%
    02:00 +7°C° 0 mm 3 mps 748 mmHg 94%
    03:00 +7°C° 0 mm 3 mps 748 mmHg 92%
    04:00 +8°C° 0 mm 3 mps 748 mmHg 90%
    05:00 +8°C° 0 mm 3 mps 748 mmHg 88%
    06:00 +9°C° 0 mm 3 mps 748 mmHg 84%
    07:00 +10°C° 0 mm 3 mps 748 mmHg 80%
    08:00 +11°C° 0 mm 3 mps 748 mmHg 76%
    09:00 +13°C° 0 mm 3 mps 747 mmHg 70%
    10:00 +15°C° 0 mm 4 mps 747 mmHg 64%
    11:00 +17°C° 0 mm 4 mps 746 mmHg 58%
    12:00 +18°C° 0.2 mm 4 mps 746 mmHg 59%
    13:00 +17°C° 0.2 mm 5 mps 746 mmHg 60%
    14:00 +19°C° 0.2 mm 6 mps 745 mmHg 61%
    15:00 +17°C° 0.2 mm 6 mps 745 mmHg 63%
    16:00 +16°C° 0.2 mm 6 mps 745 mmHg 66%
    17:00 +15°C° 0.2 mm 6 mps 745 mmHg 68%
    18:00 +13°C° 0.1 mm 5 mps 745 mmHg 73%
    19:00 +12°C° 0.1 mm 5 mps 745 mmHg 78%
    20:00 +11°C° 0.1 mm 4 mps 745 mmHg 83%
    21:00 +10°C° 0 mm 4 mps 745 mmHg 83%
    22:00 +9°C° 0 mm 5 mps 745 mmHg 84%
    23:00 +8°C° 0 mm 5 mps 745 mmHg 84%

    Day after tomorrow, 27 May, Monday

    Time Temperature Precipitation Wind Pressure Humidity
    00:00 +8°C° 0 mm 5 mps 745 mmHg 85%
    01:00 +8°C° 0 mm 4 mps 745 mmHg 87%
    02:00 +7°C° 0 mm 4 mps 745 mmHg 88%
    03:00 +8°C° 0 mm 4 mps 746 mmHg 86%
    04:00 +8°C° 0 mm 5 mps 746 mmHg 85%
    05:00 +9°C° 0 mm 5 mps 746 mmHg 83%
    06:00 +9°C° 0 mm 5 mps 746 mmHg 80%
    07:00 +9°C° 0 mm 5 mps 747 mmHg 78%
    08:00 +10°C° 0 mm 5 mps 747 mmHg 76%
    09:00 +10°C° 0 mm 5 mps 747 mmHg 74%
    10:00 +12°C° 0 mm 4 mps 748 mmHg 72%
    11:00 +12°C° 0 mm 4 mps 748 mmHg 71%
    12:00 +14°C° 0 mm 4 mps 748 mmHg 66%
    13:00 +16°C° 0 mm 3 mps 748 mmHg 62%
    14:00 +17°C° 0 mm 3 mps 748 mmHg 57%
    15:00 +17°C° 0.1 mm 3 mps 748 mmHg 63%
    16:00 +16°C° 0.1 mm 2 mps 748 mmHg 69%
    17:00 +16°C° 0.1 mm 1 mps 748 mmHg 75%
    18:00 +15°C° 0.1 mm 1 mps 748 mmHg 81%
    19:00 +14°C° 0.1 mm 1 mps 748 mmHg 86%
    20:00 +13°C° 0.1 mm 1 mps 748 mmHg 92%
    21:00 +12°C° 0 mm 1 mps 748 mmHg 94%
    22:00 +12°C° 0 mm 1 mps 749 mmHg 95%
    23:00 +10°C° 0 mm 2 mps 749 mmHg 97%

    28 May, Tuesday

    Time Temperature Precipitation Wind Pressure Humidity
    00:00 +10°C° 0 mm 2 mps 749 mmHg 97%
    01:00 +10°C° 0 mm 2 mps 749 mmHg 97%
    02:00 +10°C° 0 mm 2 mps 749 mmHg 98%
    03:00 +10°C° 0 mm 2 mps 750 mmHg 97%
    04:00 +12°C° 0 mm 2 mps 750 mmHg 97%
    05:00 +12°C° 0 mm 2 mps 750 mmHg 97%
    06:00 +13°C° 0 mm 2 mps 750 mmHg 95%
    07:00 +13°C° 0 mm 3 mps 751 mmHg 92%
    08:00 +14°C° 0 mm 3 mps 751 mmHg 89%
    09:00 +16°C° 0 mm 3 mps 751 mmHg 83%
    10:00 +17°C° 0 mm 3 mps 751 mmHg 77%
    11:00 +18°C° 0 mm 3 mps 752 mmHg 71%
    12:00 +19°C° 0 mm 3 mps 751 mmHg 68%
    13:00 +20°C° 0 mm 2 mps 751 mmHg 64%
    14:00 +21°C° 0 mm 2 mps 751 mmHg 60%
    15:00 +21°C° 0 mm 2 mps 751 mmHg 63%
    16:00 +21°C° 0 mm 2 mps 751 mmHg 65%
    17:00 +22°C° 0 mm 1 mps 750 mmHg 68%
    18:00 +21°C° 0.7 mm 1 mps 750 mmHg 76%
    19:00 +18°C° 0.7 mm 2 mps 750 mmHg 84%
    20:00 +17°C° 0.7 mm 2 mps 750 mmHg 92%
    21:00 +17°C° 0.9 mm 2 mps 750 mmHg 94%
    22:00 +16°C° 0.9 mm 2 mps 750 mmHg 95%
    23:00 +16°C° 0.9 mm 2 mps 749 mmHg 97%

    29 May, Wednesday

    Time Temperature Precipitation Wind Pressure Humidity
    00:00 +16°C° 0 mm 2 mps 749 mmHg 97%
    01:00 +15°C° 0 mm 2 mps 749 mmHg 98%
    02:00 +15°C° 0 mm 1 mps 749 mmHg 98%
    03:00 +15°C° 0.1 mm 1 mps 749 mmHg 98%
    04:00 +16°C° 0.1 mm 1 mps 749 mmHg 98%
    05:00 +16°C° 0.1 mm 1 mps 749 mmHg 98%
    06:00 +18°C° 0.7 mm 1 mps 749 mmHg 97%
    07:00 +18°C° 0.7 mm 2 mps 749 mmHg 96%
    08:00 +19°C° 0.7 mm 2 mps 749 mmHg 95%
    09:00 +19°C° 0.1 mm 2 mps 748 mmHg 93%
    10:00 +20°C° 0.1 mm 3 mps 748 mmHg 92%
    11:00 +21°C° 0.1 mm 3 mps 748 mmHg 90%
    12:00 +22°C° 1.2 mm 3 mps 748 mmHg 86%
    13:00 +24°C° 1.2 mm 3 mps 748 mmHg 83%
    14:00 +25°C° 1.2 mm 3 mps 747 mmHg 79%
    15:00 +25°C° 1.8 mm 3 mps 747 mmHg 80%
    16:00 +25°C° 1.8 mm 3 mps 746 mmHg 81%
    17:00 +25°C° 1.8 mm 2 mps 746 mmHg 82%
    18:00 +23°C° 3.2 mm 2 mps 746 mmHg 85%
    19:00 +21°C° 3.2 mm 2 mps 745 mmHg 89%
    20:00 +19°C° 3.2 mm 2 mps 745 mmHg 92%
    21:00 +19°C° 0.6 mm 3 mps 745 mmHg 93%
    22:00 +18°C° 0.6 mm 4 mps 745 mmHg 94%
    23:00 +18°C° 0.6 mm 4 mps 746 mmHg 95%

    30 May, Thursday

    Time Temperature Precipitation Wind Pressure Humidity
    00:00 +16°C° 0 mm 5 mps 746 mmHg 94%
    01:00 +15°C° 0 mm 5 mps 747 mmHg 93%
    02:00 +14°C° 0 mm 6 mps 748 mmHg 92%
    03:00 +13°C° 0 mm 5 mps 749 mmHg 91%
    04:00 +12°C° 0 mm 5 mps 750 mmHg 90%
    05:00 +9°C° 0 mm 5 mps 751 mmHg 89%
    06:00 +10°C° 0 mm 5 mps 752 mmHg 80%
    07:00 +12°C° 0 mm 5 mps 753 mmHg 72%
    08:00 +12°C° 0 mm 5 mps 754 mmHg 63%
    09:00 +14°C° 0 mm 5 mps 754 mmHg 58%
    10:00 +15°C° 0 mm 5 mps 755 mmHg 54%
    11:00 +16°C° 0 mm 5 mps 755 mmHg 49%
    12:00 +16°C° 0 mm 5 mps 756 mmHg 47%
    13:00 +17°C° 0 mm 5 mps 756 mmHg 44%
    14:00 +18°C° 0 mm 4 mps 757 mmHg 42%
    15:00 +18°C° 0 mm 4 mps 757 mmHg 44%
    16:00 +18°C° 0 mm 4 mps 757 mmHg 46%
    17:00 +18°C° 0 mm 3 mps 757 mmHg 48%
    18:00 +16°C° 0 mm 2 mps 757 mmHg 54%
    19:00 +14°C° 0 mm 1 mps 758 mmHg 60%
    20:00 +12°C° 0 mm 0 mps 758 mmHg 67%
    21:00 +12°C° 0 mm 1 mps 758 mmHg 66%
    22:00 +11°C° 0 mm 1 mps 758 mmHg 66%
    23:00 +10°C° 0 mm 1 mps 759 mmHg 66%
    Show more